Location: �perlecques
(50.8057°N, 2.1521°E)
Time: 21:05:48
(UTC+00:00)

Tiros 1 - Pass Details

Date: 11 August 2021
Orbit: 630 x 663 km, 48.4° (Epoch: 28 September)

Event Time Altitude Azimuth Distance (km) Brightness Sun altitude
Rises 15:32:49 0° 247° (WSW) 2,991 11.6 34.0°
Reaches altitude 10° 15:35:12 10° 243° (WSW) 2,079 11.2 33.7°
Maximum altitude 15:39:54 56° 166° (SSE) 789 8.1 33.0°
Drops below altitude 10° 15:44:35 10° 89° (E) 2,072 9.3 32.3°
Sets 15:46:57 0° 85° (E) 2,981 10.0 31.9°
